Flag for French Polynesia Weather past 2 weeks in Papeete, Tahiti, French Polynesia

Now
77 °F

Passing clouds.


Feels Like: 79 °F
Forecast: 73 / 84 °F
Wind: 2 mph from East

Location: Tahiti-Faaa

Current Time: Aug 21, 2014 at 10:26:32 PM

Latest Report: Aug 21, 2014 at 10:00 PM


Visibility: N/A

Pressure: 29.95 "Hg

Humidity: 74%

Dew point: 68 °F

Location of PapeeteLocation

Historic Weather in Papeete — Graph

°F

Papeete temperature yesterday

Maximum temperature yesterday: 84 °F (at 12:00 PM)
Minimum temperature yesterday: 73 °F (at 2:00 AM)
Average temperature yesterday: 78 °F

Past Weeks' High & Low Weather Summary

 TemperatureHumidityPressure
High86 °F (Aug 10, 11:00 AM)94% (Aug 15, 7:30 PM)30.04 "Hg (Aug 15, 7:30 PM)
Low70 °F (Aug 8, 5:00 AM)48% (Aug 8, 4:30 PM)29.89 "Hg (Aug 10, 3:30 PM)
Average78 °F73%29.97 "Hg
* Reported Aug 6 9:00 PM — Aug 21 9:30 PM, Papeete, Weather by CustomWeather, © 2014

Note: Actual official high and low records may vary slightly from our data, if they occured in-between our weather recording intervals... More about our weather records

Advertising

Papeete weather history for previous 24 hours

 ConditionsComfort  
Time TempWeatherWind HumidityBarometerVisibility
9:30 PM
Aug 21
77 °FPassing clouds.3 mph74%29.95 "HgN/A
9:00 PM77 °FPassing clouds.3 mph74%29.95 "HgN/A
8:30 PM77 °FPassing clouds.2 mph74%29.95 "HgN/A
8:00 PM79 °FPassing clouds.3 mph70%29.95 "HgN/A
7:30 PM79 °FPassing clouds.3 mph70%29.95 "HgN/A
7:00 PM79 °FPassing clouds.3 mph74%29.95 "HgN/A
6:30 PM79 °FPassing clouds.3 mph74%29.92 "HgN/A
6:00 PM79 °FPassing clouds.1 mph74%29.92 "HgN/A
5:30 PM81 °FPassing clouds.5 mph70%29.92 "HgN/A
5:00 PM81 °FPassing clouds.7 mph70%29.92 "HgN/A
4:30 PM82 °FPassing clouds.5 mph66%29.89 "HgN/A
4:00 PM84 °FPassing clouds.2 mph62%29.89 "HgN/A
3:30 PM84 °FPassing clouds.5 mph62%29.89 "HgN/A
3:00 PM82 °FPassing clouds.7 mph66%29.89 "HgN/A
2:00 PM82 °FPassing clouds.9 mph66%29.92 "HgN/A
1:30 PM82 °FPassing clouds.8 mph62%29.92 "HgN/A
1:00 PM82 °FPassing clouds.8 mph66%29.92 "HgN/A
12:30 PM82 °FPassing clouds.8 mph66%29.95 "HgN/A
12:00 PM82 °FPassing clouds.5 mph66%29.95 "HgN/A
11:30 AM82 °FPassing clouds.6 mph66%29.98 "HgN/A
11:00 AM82 °FPassing clouds.5 mph62%29.98 "HgN/A
10:30 AM82 °FPassing clouds.5 mph66%29.98 "HgN/A
10:00 AM81 °FPassing clouds.5 mph66%29.98 "HgN/A
9:30 AM81 °FPassing clouds.3 mph70%30.01 "HgN/A
9:00 AM79 °FPassing clouds.2 mph74%30.01 "HgN/A
8:30 AM79 °FPassing clouds.2 mph70%29.98 "HgN/A
8:00 AM77 °FPassing clouds.2 mph74%29.98 "HgN/A
7:30 AM75 °FPassing clouds.3 mph78%29.98 "HgN/A
7:00 AM73 °FPassing clouds.2 mph83%29.98 "HgN/A
6:30 AM72 °FPassing clouds.2 mph83%29.95 "HgN/A
6:00 AM72 °FPassing clouds.3 mph83%29.95 "HgN/A
5:30 AM72 °FMild.No wind83%29.95 "HgN/A
5:00 AM72 °FMild.No wind83%29.92 "HgN/A
4:30 AM72 °FMild.No wind83%29.92 "HgN/A
4:00 AM72 °FMild.3 mph83%29.92 "HgN/A
3:30 AM72 °FMild.No wind83%29.92 "HgN/A
3:00 AM73 °FPassing clouds.2 mph78%29.92 "HgN/A
2:30 AM73 °FPassing clouds.3 mph83%29.92 "HgN/A
2:00 AM73 °FPassing clouds.3 mph83%29.92 "HgN/A
1:30 AM73 °FPassing clouds.3 mph78%29.95 "HgN/A
1:00 AM75 °FPassing clouds.5 mph74%29.95 "HgN/A
12:30 AM75 °FPassing clouds.3 mph78%29.95 "HgN/A
12:00 AM75 °FPassing clouds.No wind78%29.95 "HgN/A
11:30 PM
Aug 20
75 °FPassing clouds.3 mph78%29.98 "HgN/A
11:00 PM75 °FPassing clouds.6 mph78%29.98 "HgN/A
10:30 PM75 °FPassing clouds.2 mph78%29.98 "HgN/A
10:00 PM75 °FPassing clouds.1 mph78%29.98 "HgN/A
Weather by CustomWeather, © 2014

See weather overviewHow to use our weather pages